GFSMA_500_rhum_006.txt.gz
RH
7 8 7 7 7 7 7 8 10 11 11 13 24 97 99 98 95 92 97 98 93 87 93 88 85 74 73 92 83 71 74 75 63 37 21 21 23 26 24 26 30 26 14
13 10 8 8 9 8 8 10 14 17 16 13 13 23 93 97 97 98 96 99 96 99 97 88 86 78 76 82 95 80 81 87 77 51 24 12 13 22 22 24 23 17 6
21 20 19 16 16 18 18 20 18 20 18 18 16 15 17 36 91 95 97 95 98 98 96 92 88 82 80 90 96 83 91 87 91 65 38 16 9 14 21 22 20 12 4
35 35 34 33 31 31 34 38 34 29 28 22 23 27 24 23 26 73 94 98 100 100 98 98 90 90 80 89 98 95 94 89 92 85 57 36 16 16 24 20 13 10 5
39 41 40 41 43 43 43 48 49 50 52 48 37 33 29 25 24 29 41 85 93 97 86 100 97 97 86 83 73 83 97 94 94 94 84 68 40 22 23 19 11 7 5
38 40 44 50 51 48 45 45 50 52 55 55 54 47 37 31 32 31 28 39 64 83 83 70 82 93 100 96 90 78 74 91 95 99 92 88 76 46 24 22 13 8 6
36 41 50 49 55 62 66 61 57 57 58 58 56 58 54 45 40 37 28 24 28 35 58 62 32 37 62 82 82 82 70 71 94 98 99 95 94 67 35 28 18 12 8
59 70 75 67 67 71 77 78 74 68 69 70 66 65 61 62 56 43 36 38 32 21 32 40 32 35 26 26 56 67 75 74 79 83 95 99 97 77 46 32 23 19 12
64 83 84 84 80 79 83 87 84 76 70 79 81 65 56 56 65 56 50 46 37 35 26 19 28 40 36 29 20 26 54 70 71 94 97 99 97 83 60 45 30 22 21
74 73 74 71 64 69 80 87 88 84 75 75 82 91 71 59 62 65 61 58 55 48 37 24 20 16 17 18 17 17 17 33 53 93 95 99 97 97 83 56 38 27 22
90 87 82 79 87 91 90 95 100 100 95 80 83 87 89 81 75 66 67 73 60 55 49 41 31 19 18 21 23 22 21 15 26 46 85 93 98 99 96 73 46 32 18
98 100 98 100 100 100 100 98 98 98 100 100 98 99 91 87 93 96 70 73 81 74 59 56 49 42 36 34 29 26 22 22 15 19 47 100 89 96 97 93 71 42 29
88 94 98 95 98 100 99 100 98 98 97 98 100 100 95 94 94 97 95 79 79 85 81 72 66 60 55 47 38 34 29 20 20 16 21 69 100 100 96 98 81 58 36
98 100 100 100 100 100 98 100 100 99 99 99 98 100 99 100 100 97 87 83 77 76 82 74 71 65 60 57 45 37 30 26 19 18 15 22 84 100 100 100 94 90 48
99 100 100 100 100 100 100 100 100 100 100 100 100 97 97 100 100 99 94 88 82 68 66 68 62 56 52 48 43 35 30 27 24 17 14 13 19 89 100 100 96 95 53
100 100 100 100 100 100 100 100 99 95 87 83 79 76 71 67 63 59 56 53 51 50 52 51 46 37 33 33 34 31 28 24 22 18 14 12 13 35 97 100 100 85 64
100 100 100 100 100 100 100 97 85 81 75 64 59 55 48 42 36 27 17 16 14 13 12 19 19 21 18 18 19 22 21 19 17 16 14 11 12 13 44 98 100 97 71
100 100 100 100 100 100 87 82 78 70 60 49 31 11 4 3 4 4 4 4 5 6 6 5 6 7 9 8 9 12 13 14 14 13 12 11 10 12 13 69 100 100 100
100 100 100 100 92 83 76 70 56 28 4 2 2 4 6 8 8 8 8 7 7 7 7 6 5 5 5 5 5 5 7 7 8 8 8 8 8 9 11 40 100 96 100
100 100 98 92 84 74 44 8 3 6 9 9 9 9 7 6 6 7 8 8 10 9 8 9 7 6 6 5 5 5 4 4 4 5 5 6 6 9 11 28 100 100 99
93 94 92 76 33 7 8 12 11 10 9 7 7 10 12 17 19 26 26 34 38 36 33 30 26 17 12 12 7 7 6 5 4 4 7 5 6 73 29 12 89 100 97
96 80 29 9 12 14 12 10 9 8 10 14 26 47 63 59 70 76 69 64 58 54 55 66 68 56 50 54 58 33 16 5 4 5 10 13 23 100 96 29 59 100 100
47 12 14 16 14 11 10 9 13 14 20 44 58 71 81 91 90 79 91 94 76 46 45 68 63 56 65 69 77 99 58 23 6 5 16 17 15 81 100 73 100 97 100
16 18 16 12 10 11 13 16 21 32 42 54 61 73 75 79 84 83 80 71 57 53 47 58 74 67 60 77 99 100 98 50 26 14 31 39 28 25 62 100 100 100 100
18 16 12 11 12 15 24 48 40 41 56 71 70 64 73 74 82 88 87 82 90 94 86 76 66 81 77 83 99 100 89 100 38 33 28 47 48 27 36 53 100 100 100
16 12 12 15 17 23 48 50 32 42 57 57 65 68 86 94 100 98 87 89 77 93 100 100 98 94 100 100 100 100 98 91 92 28 45 50 51 50 52 58 100 100 100

GFSMA_500_rhum_009.txt.gz
RH
14 14 14 14 13 13 14 15 20 22 20 22 19 12 8 6 32 96 97 90 90 99 98 95 99 97 86 92 99 89 90 90 90 78 68 71 45 29 23 25 30 37 40
29 32 32 34 35 31 32 32 34 33 31 28 26 22 18 18 13 13 70 97 97 97 96 98 93 89 86 88 90 98 84 84 88 89 85 78 73 40 25 22 26 32 32
28 30 30 31 31 33 32 33 36 39 41 42 41 33 27 22 20 19 13 25 94 98 96 93 98 94 84 82 91 93 86 76 71 94 88 89 90 72 33 16 18 27 29
30 30 31 32 31 35 43 51 50 40 38 43 44 46 46 41 31 21 23 16 13 70 99 98 97 100 98 94 94 90 94 82 92 95 98 82 92 93 63 21 12 13 22
30 30 33 36 37 38 42 56 62 69 66 49 43 47 52 53 52 41 28 29 22 12 48 98 99 98 96 96 94 99 84 77 81 97 97 83 83 91 90 47 19 13 16
39 38 42 52 55 53 53 63 68 69 70 75 69 53 53 62 58 58 45 29 22 27 25 28 97 95 100 98 94 96 95 72 78 98 94 93 90 84 88 75 43 30 22
51 53 52 54 58 64 70 81 77 70 70 74 72 74 68 67 68 63 60 48 32 32 36 34 27 80 99 95 100 95 100 88 86 91 94 94 100 96 95 92 68 57 38
49 48 64 64 66 69 76 79 76 74 68 65 71 70 72 79 75 76 63 61 54 40 37 38 40 58 58 89 79 80 93 90 86 84 85 90 83 91 96 99 96 75 62
57 56 58 64 71 74 77 77 79 77 74 76 76 80 81 79 88 98 84 68 69 57 44 43 39 40 64 73 68 48 42 55 70 88 78 76 91 94 88 90 97 94 87
80 81 75 68 70 71 67 68 70 80 82 85 91 99 92 84 84 92 100 90 75 73 61 49 42 41 45 58 38 39 40 38 29 68 78 87 85 86 93 95 94 96 93
83 75 72 68 64 59 59 64 72 87 100 100 90 90 95 91 90 87 87 100 93 82 78 67 53 46 43 58 50 43 40 31 23 29 55 63 83 92 98 100 89 97 97
88 81 70 60 61 70 91 98 99 98 100 95 94 86 88 94 90 94 87 90 100 100 93 85 73 63 50 39 45 66 54 40 25 19 26 44 59 95 98 98 98 97 93
84 68 77 90 100 100 100 100 100 100 97 100 95 87 85 86 91 83 86 88 93 100 100 96 88 81 72 55 39 37 50 41 28 23 22 17 28 57 99 92 97 99 98
55 62 87 100 100 100 100 100 99 100 100 100 93 94 90 90 96 97 85 90 91 97 100 100 100 96 86 75 59 46 34 35 49 30 24 23 15 22 44 96 98 100 98
44 56 95 100 100 100 100 100 100 100 99 98 96 94 98 100 98 100 100 96 87 84 96 100 100 100 100 90 75 63 52 44 45 53 32 23 19 15 17 26 88 98 98
65 83 100 100 100 100 100 100 100 100 98 96 96 94 91 86 88 95 96 99 98 84 72 93 99 100 100 100 95 80 68 57 50 46 42 35 26 18 16 16 35 92 98
90 100 100 100 100 100 100 100 100 98 97 97 98 87 78 80 74 69 66 65 66 73 68 68 81 91 98 100 100 99 87 76 66 60 55 47 36 24 16 14 15 75 98
100 100 100 100 100 100 100 100 100 100 97 88 75 69 55 40 28 16 11 10 12 18 32 43 52 58 65 71 83 95 98 89 78 68 61 55 45 33 23 16 13 15 98
100 100 100 100 100 100 100 100 96 77 52 22 8 5 5 6 6 7 6 5 4 4 3 9 19 24 33 37 33 33 43 72 74 60 51 49 46 38 29 22 14 11 18
100 100 100 100 99 97 91 61 24 10 10 12 12 12 11 10 9 8 8 8 8 8 7 6 3 3 5 8 12 12 12 15 26 42 43 33 35 35 30 24 19 18 26
91 94 90 95 94 43 16 14 15 14 13 11 8 8 8 9 11 10 13 13 11 9 7 6 6 6 6 6 4 4 5 6 8 8 13 22 23 26 26 24 19 15 12
97 98 98 47 20 19 17 15 13 10 9 9 13 14 17 37 49 53 57 54 50 49 44 29 17 9 8 8 7 6 6 5 5 5 5 7 10 12 16 19 18 16 14
100 79 27 23 19 17 14 11 10 10 17 29 35 40 53 54 58 64 75 70 69 79 80 83 52 41 38 42 41 30 19 10 7 7 7 5 5 6 7 9 13 14 13
60 27 24 19 15 13 11 10 13 30 42 41 40 50 64 70 67 67 70 73 73 77 76 69 63 54 45 50 61 50 47 47 41 17 10 7 7 5 5 5 7 9 22
28 25 20 15 13 11 10 14 37 40 33 36 46 58 53 44 50 58 41 49 52 71 100 99 84 54 58 45 60 75 59 43 44 47 49 39 15 7 6 5 5 6 9
26 20 15 13 11 10 13 35 43 43 56 70 92 86 84 80 82 94 96 85 81 100 100 99 93 77 76 91 70 56 88 71 56 53 65 70 72 28 10 6 6 6 7

GFSMA_500_rhum_015.txt.gz
RH
21 22 23 24 25 25 26 27 29 30 30 28 26 26 31 34 29 23 18 11 6 6 4 18 33 72 89 80 80 97 97 97 99 90 76 67 63 57 51 48 47 53 64
45 39 31 27 27 27 28 29 31 32 33 34 36 36 37 40 40 39 43 38 22 13 9 5 11 49 86 93 92 92 93 97 98 100 95 75 73 69 70 60 51 47 56
47 48 48 46 43 42 43 44 41 38 38 37 37 41 46 46 42 47 53 49 50 46 18 17 8 12 50 68 96 94 92 97 97 97 99 92 77 78 79 77 73 62 61
48 49 50 50 50 50 50 49 50 54 52 50 50 48 49 52 50 51 48 52 56 58 54 24 21 17 10 34 44 89 100 87 96 97 88 93 94 89 86 88 82 88 86
50 48 48 48 49 55 59 60 61 61 64 64 62 60 61 65 64 61 57 56 54 52 55 59 33 24 24 18 17 29 64 93 92 92 98 97 95 90 97 95 90 90 96
52 54 54 52 51 50 55 60 65 69 76 79 77 75 72 71 71 69 65 62 59 54 51 56 61 40 28 31 26 27 48 87 98 88 84 99 97 90 83 84 93 90 91
63 59 57 55 54 56 60 66 69 72 76 79 79 78 78 74 70 62 60 63 64 60 54 51 58 62 46 35 36 27 40 49 93 84 86 93 98 98 100 79 78 91 78
51 60 67 70 69 68 72 77 84 87 87 86 80 76 70 68 62 58 54 53 56 57 58 55 53 63 66 52 41 41 29 46 65 98 94 80 99 95 97 96 88 84 84
52 58 65 70 71 68 65 62 60 60 66 70 69 64 57 51 48 47 44 43 44 47 50 52 58 60 69 71 59 47 45 26 58 95 98 98 86 100 100 94 98 95 88
59 58 59 61 61 59 56 54 53 51 54 62 60 54 48 42 38 35 43 50 54 60 65 62 57 64 69 79 79 68 60 43 47 74 96 99 99 100 87 100 91 97 89
53 53 58 61 60 62 61 62 62 60 60 62 60 54 45 35 32 31 25 64 97 98 100 100 90 73 76 89 99 87 75 66 38 78 90 83 100 100 96 98 91 88 97
54 57 66 76 79 83 79 72 68 65 65 63 57 49 33 30 27 36 42 44 64 88 99 96 93 93 82 77 96 100 96 87 61 39 48 84 76 98 100 100 97 81 98
48 52 67 74 80 84 80 76 74 69 64 57 58 52 54 53 70 73 77 76 73 81 90 91 86 84 85 78 76 94 100 100 91 52 41 51 94 74 93 98 98 94 100
40 42 60 70 72 69 63 56 62 45 78 100 100 100 98 100 99 89 78 74 66 60 68 88 91 83 80 78 72 71 92 99 100 80 48 45 85 80 75 96 98 97 100
43 52 66 70 62 47 36 44 67 72 87 100 100 100 100 100 87 86 88 86 83 62 65 75 71 79 84 76 69 65 81 96 98 100 63 50 100 100 100 94 99 100 96
50 54 59 58 44 28 36 83 100 100 100 100 100 100 92 92 99 100 96 95 94 87 61 72 77 77 83 76 73 80 71 98 99 97 100 47 59 96 100 96 93 71 88
51 46 51 43 17 18 47 93 100 100 100 100 100 100 100 100 98 100 100 100 99 97 80 70 71 77 86 95 92 96 88 83 100 100 100 94 42 54 99 100 88 66 66
37 53 25 17 19 45 91 100 100 100 100 100 100 100 100 100 100 100 100 95 92 91 82 66 68 66 73 85 91 96 100 90 96 100 100 99 90 40 53 87 100 56 37
33 18 20 31 75 99 100 100 99 94 95 98 98 98 91 71 49 24 16 15 14 15 18 27 40 41 46 53 67 72 91 100 96 100 100 100 100 91 44 77 98 83 35
26 43 64 92 100 100 100 95 87 82 83 85 60 27 19 13 11 10 11 12 12 11 11 9 8 9 16 22 23 28 49 79 100 100 100 100 100 100 97 53 58 61 56
68 87 97 92 83 77 77 80 85 85 66 28 18 14 13 13 13 12 10 9 9 9 9 8 9 10 9 8 9 12 16 19 52 85 98 100 100 96 97 100 71 56 58
100 100 100 100 100 100 100 98 74 30 18 14 14 13 12 10 10 15 25 36 46 44 40 31 14 10 8 8 8 7 8 9 13 21 53 88 98 100 97 96 98 98 66
100 100 100 100 100 100 86 45 24 15 13 13 13 11 10 21 31 35 37 39 43 50 60 56 59 67 68 53 21 9 8 7 7 7 10 29 59 84 97 100 96 93 98
100 100 100 100 100 74 37 22 14 14 14 12 10 14 30 36 41 44 53 56 58 59 59 61 63 68 67 50 46 41 21 9 7 7 6 9 10 30 61 86 99 97 86
100 100 100 98 75 38 22 15 16 14 12 12 26 50 52 67 86 89 88 89 92 100 98 58 40 44 53 70 63 50 55 49 28 13 8 6 6 10 10 26 74 95 100
100 100 94 72 39 23 17 16 14 12 13 35 70 72 81 82 86 89 94 94 98 100 100 99 99 91 75 72 69 74 80 64 39 35 42 13 7 6 8 8 8 36 74

GFSMA_500_rhum_021.txt.gz
RH
44 49 49 49 49 49 50 51 53 53 53 55 55 51 48 44 42 38 34 30 30 28 21 22 15 7 7 11 58 94 95 96 96 97 96 90 73 76 75 71 80 78 75
46 48 50 52 53 53 50 48 47 50 54 56 58 61 60 58 54 49 45 41 35 33 36 28 26 26 19 8 6 9 38 36 61 82 96 96 95 83 82 74 76 77 74
44 46 48 50 52 53 50 47 48 47 46 47 50 53 56 59 62 65 62 53 48 44 38 35 37 30 28 29 28 18 8 8 8 12 38 94 94 97 93 88 78 73 69
47 45 44 46 48 50 51 50 50 50 48 46 44 46 49 52 54 57 65 69 65 58 53 46 36 39 38 35 34 39 40 37 20 13 26 50 95 95 94 95 92 77 60
51 50 50 51 49 51 52 52 53 50 51 50 47 48 55 59 59 57 60 66 71 72 66 64 57 44 42 44 45 42 40 41 42 30 15 46 55 79 98 98 97 93 78
50 48 47 44 40 40 44 45 46 47 48 49 47 47 49 52 58 66 70 71 72 76 75 75 74 67 53 52 54 51 47 42 40 41 31 15 39 56 69 90 96 98 97
43 37 33 35 37 38 42 43 42 44 46 49 47 52 52 59 61 63 65 70 71 72 71 74 78 78 78 71 59 61 60 50 46 46 40 33 17 33 46 53 66 87 96
44 40 39 41 45 46 47 48 48 45 46 47 45 45 45 52 62 70 65 62 61 62 62 62 61 62 68 74 76 71 64 62 55 49 53 46 37 23 36 37 44 61 72
54 54 54 52 51 51 50 52 54 55 51 49 45 42 39 36 46 56 66 64 63 60 60 60 62 64 59 58 62 63 62 59 56 57 51 54 54 42 25 29 21 24 40
57 61 65 66 62 54 44 51 53 50 44 37 30 30 31 38 38 43 58 74 71 67 65 69 66 65 63 58 56 53 50 47 46 46 52 51 54 55 48 31 23 20 25
58 58 54 50 47 44 41 43 44 40 26 10 6 8 11 22 36 53 60 67 65 70 70 70 68 68 74 76 67 61 51 45 40 39 38 41 45 51 56 52 35 28 23
71 74 70 59 66 80 59 52 57 42 27 38 18 10 17 22 30 46 61 70 69 75 77 84 77 71 74 91 87 71 61 52 38 33 32 34 37 41 46 58 53 43 32
48 52 57 49 45 34 29 15 13 12 27 37 43 25 15 30 52 53 50 55 54 64 96 98 79 68 72 75 80 89 80 65 55 42 28 28 30 33 36 39 60 56 49
53 48 42 36 23 16 13 11 6 5 5 10 10 32 30 33 52 52 100 54 39 49 44 70 46 51 56 60 53 55 62 70 64 54 44 26 24 28 30 32 43 64 58
29 21 25 25 14 10 9 9 8 7 6 7 18 36 39 100 63 100 94 100 100 66 81 67 81 89 60 70 79 62 50 50 52 49 46 40 34 23 25 30 35 48 63
26 26 42 29 12 10 9 8 9 7 13 25 42 74 100 100 100 100 100 96 100 98 90 100 100 100 100 96 90 79 68 57 49 46 46 43 40 33 24 27 35 39 51
11 14 17 12 9 10 25 32 21 42 64 95 100 100 100 100 100 100 100 100 100 100 99 100 94 83 65 62 65 64 60 57 56 51 50 53 56 49 38 28 33 44 51
14 10 8 9 16 42 77 99 100 100 100 100 100 100 100 100 100 100 95 91 85 79 73 68 71 69 67 70 65 62 64 70 72 71 70 63 60 58 62 54 36 39 57
9 10 11 22 51 89 100 100 100 100 100 100 100 100 100 100 100 98 97 93 90 86 83 75 69 67 62 60 60 59 59 64 70 75 81 79 74 69 60 60 57 48 49
12 16 31 60 98 100 100 100 96 94 92 90 93 98 94 96 99 99 95 87 77 65 55 44 33 21 14 10 10 11 13 21 25 31 47 71 83 80 72 62 55 53 49
26 69 97 100 100 100 100 100 100 100 100 100 100 100 98 93 85 76 62 42 26 15 11 10 11 13 13 14 14 13 12 11 11 11 12 15 31 76 84 72 63 55 50
82 92 100 100 100 100 100 100 99 94 94 99 100 100 92 70 53 40 20 11 11 14 15 13 10 11 12 14 21 24 20 15 13 11 11 11 11 14 55 76 69 67 61
93 95 98 97 96 94 92 92 93 94 93 93 86 76 62 39 20 15 15 15 13 10 17 24 29 31 34 37 39 40 42 46 49 36 14 10 10 11 11 34 66 68 70
93 95 96 92 88 85 79 76 72 70 69 63 54 41 27 17 16 15 14 11 21 38 55 63 69 80 83 86 86 75 50 35 53 64 63 26 11 10 10 10 30 59 67
63 47 36 30 28 29 28 29 28 27 27 27 25 23 17 17 15 12 16 43 63 77 83 92 93 88 76 87 88 86 91 48 36 59 68 59 60 16 10 10 10 22 53
24 21 18 16 15 15 15 14 13 14 15 16 17 17 16 14 13 40 61 75 89 85 83 84 88 82 78 86 96 86 84 84 59 43 68 58 69 68 17 10 9 10 20

GFSMA_500_rhum_024.txt.gz
RH
41 46 49 50 48 48 50 51 51 50 49 46 44 44 45 47 49 49 48 49 44 38 33 29 25 21 20 14 8 22 68 95 98 98 97 96 95 93 74 61 60 54 52
45 46 49 51 51 50 50 50 52 53 52 48 45 44 44 44 45 47 49 52 53 50 45 40 35 31 25 23 20 10 8 17 64 97 95 97 97 91 80 70 70 66 60
47 52 53 52 50 50 52 50 50 50 50 50 50 51 50 49 46 45 46 44 50 56 54 48 46 41 36 31 28 27 16 9 9 32 63 81 89 97 97 86 90 85 83
51 56 56 53 50 48 46 44 42 42 43 43 43 43 44 44 45 45 46 47 47 50 57 60 54 48 48 41 38 30 30 27 13 9 9 9 11 13 30 94 97 98 97
51 51 47 43 35 34 34 33 33 33 34 39 38 38 40 41 40 43 44 47 48 50 53 62 61 62 54 52 51 45 39 32 31 26 20 15 12 13 12 23 76 97 97
44 36 30 28 25 26 29 27 28 31 40 44 42 41 44 40 39 41 44 44 43 46 49 48 62 65 67 64 57 55 51 47 41 39 37 39 40 40 27 19 44 91 96
37 31 28 26 26 23 29 37 38 34 38 46 41 46 41 38 44 43 44 41 42 44 43 47 55 62 68 74 71 68 60 55 52 51 50 49 50 50 48 27 31 56 94
32 34 34 33 33 32 38 55 60 52 46 53 40 44 32 35 34 44 40 39 39 38 37 40 45 54 62 66 72 81 77 68 55 54 58 58 55 54 50 47 24 48 59
40 46 51 58 61 57 56 56 58 59 51 46 44 44 34 23 30 23 17 26 29 28 34 34 34 38 48 57 60 65 75 83 77 66 59 64 68 64 56 49 43 23 44
45 46 47 55 61 74 82 67 50 52 62 52 54 40 27 23 12 13 6 4 6 16 27 31 35 32 30 39 47 57 60 63 71 76 74 69 66 72 70 58 49 43 25
59 62 65 58 52 51 49 50 49 51 49 35 31 20 18 6 7 6 6 25 7 4 10 32 49 44 36 31 32 42 52 62 61 63 65 66 70 68 69 69 60 50 44
62 60 58 58 56 57 58 55 43 18 10 10 9 9 8 10 7 6 5 13 44 20 5 8 40 68 68 61 48 34 35 54 60 62 59 62 62 62 65 65 68 61 49
48 49 52 51 45 29 16 8 7 8 10 10 10 10 10 9 9 8 8 8 17 32 31 12 29 55 66 72 68 58 51 45 47 56 62 64 58 54 53 54 54 63 63
28 22 19 18 16 12 8 9 11 11 11 10 8 8 9 12 13 15 23 29 34 31 33 35 57 60 81 78 77 74 79 71 68 62 49 53 60 60 53 46 43 43 51
21 20 17 14 13 17 16 13 10 8 8 9 9 12 17 23 32 40 51 71 65 65 81 96 87 93 100 93 94 88 96 97 76 63 57 60 57 50 59 55 42 38 37
16 16 19 19 18 14 11 10 10 13 17 19 27 50 66 97 100 100 100 100 100 100 100 100 100 100 100 95 98 88 93 93 65 62 58 55 54 52 41 48 54 38 33
23 20 18 18 11 12 13 14 23 41 88 99 97 100 100 100 100 100 100 100 100 100 100 100 100 100 100 95 91 86 63 63 56 51 56 43 37 36 41 39 39 48 41
30 12 13 13 14 18 26 42 81 100 100 100 100 100 100 100 100 100 100 98 96 95 98 98 100 100 100 100 100 99 99 93 87 75 60 52 50 38 20 25 33 33 41
19 12 14 19 43 75 100 100 99 98 98 98 98 97 96 96 96 96 98 95 90 83 83 81 77 80 74 73 69 68 64 60 56 52 50 45 43 33 25 21 17 20 26
14 16 31 67 89 98 100 100 100 100 99 98 99 98 95 93 91 95 98 98 98 97 93 85 76 71 67 64 61 60 59 57 53 52 49 49 49 52 48 42 35 27 23
35 53 68 80 86 87 89 94 99 100 100 100 100 100 100 98 98 94 93 93 85 74 69 66 62 49 39 27 23 19 23 24 29 34 39 42 46 50 53 52 51 45 39
69 79 86 85 84 80 80 80 85 90 93 92 92 98 100 100 100 97 85 69 60 54 36 19 12 12 14 14 13 12 12 12 11 12 11 11 12 14 21 42 53 53 50
74 68 45 28 23 22 22 22 23 24 27 36 52 67 70 71 67 62 58 55 35 16 12 14 14 12 14 20 23 23 26 30 29 24 18 12 12 10 10 11 14 32 51
56 32 23 21 21 19 18 16 16 15 15 16 19 23 25 30 38 39 29 19 16 15 13 14 25 38 48 59 69 73 66 51 43 41 38 30 32 28 24 10 9 12 15
36 27 23 22 20 17 16 15 15 14 14 13 12 12 15 18 19 19 18 16 14 30 45 64 82 90 89 96 100 98 95 89 80 78 76 54 33 42 49 33 17 9 10
33 26 25 20 17 17 18 19 20 19 18 17 16 12 10 12 15 16 16 18 65 83 79 43 49 68 84 94 100 86 85 93 100 100 100 85 71 37 51 51 40 22 10

GFSMA_500_rhum_030.txt.gz
RH
46 43 42 45 46 47 47 47 44 40 39 37 39 39 38 38 39 40 36 42 45 41 38 38 41 44 45 38 31 26 24 24 23 21 15 48 62 91 94 96 96 97 94
56 52 50 50 47 45 44 40 32 27 24 26 27 26 29 30 26 29 34 28 37 42 43 44 44 41 40 46 49 40 33 27 26 26 24 15 25 63 94 96 97 96 97
49 49 48 48 45 39 32 27 25 24 24 24 24 24 23 24 26 23 22 22 21 28 30 34 38 42 43 41 42 48 50 40 33 32 32 28 18 16 64 65 84 96 98
50 50 44 39 31 24 24 25 27 27 27 26 24 24 23 24 26 26 27 26 22 20 22 24 24 27 33 41 40 41 44 50 49 39 38 35 30 22 14 36 84 93 95
46 44 32 30 26 24 26 29 30 32 32 33 33 32 30 28 27 24 22 27 33 27 20 23 22 22 22 24 35 40 42 45 51 55 47 42 40 34 27 15 16 83 96
36 30 29 27 27 27 31 36 35 34 34 35 32 29 32 30 26 24 24 27 27 30 38 21 22 25 23 23 23 32 43 49 50 56 61 57 47 47 41 32 18 21 80
33 33 32 34 35 35 39 40 38 37 37 37 30 28 25 26 28 32 31 24 25 26 30 35 29 27 28 25 21 23 27 38 47 55 59 66 67 55 53 48 35 22 23
38 38 40 40 41 42 42 41 36 30 27 29 30 30 25 23 28 28 27 29 35 38 36 32 35 39 38 36 26 22 20 23 32 41 50 62 67 71 66 56 50 39 27
41 44 44 42 36 36 37 36 34 32 31 31 36 36 32 28 28 29 30 38 66 80 80 89 55 50 50 34 26 19 17 16 18 21 31 42 55 68 74 75 67 55 44
52 47 43 42 42 45 41 40 39 40 41 38 38 37 33 29 30 30 26 22 31 42 57 77 95 68 77 42 11 7 6 6 8 10 14 24 34 46 63 74 80 80 63
39 42 48 50 50 56 65 58 50 52 64 64 56 43 37 35 30 29 32 29 22 33 37 63 72 84 83 44 26 10 7 6 6 6 5 8 18 31 41 55 67 74 84
48 51 53 52 48 50 54 68 89 79 59 50 41 29 18 12 10 24 30 21 20 21 32 50 69 98 100 86 100 80 16 10 9 7 6 5 5 13 32 43 54 65 73
54 53 53 54 58 65 68 61 55 50 36 16 8 6 7 8 8 11 16 21 25 22 24 28 39 67 77 85 94 85 32 25 12 22 28 10 5 5 9 32 45 60 66
63 62 70 72 64 58 60 49 26 8 6 5 6 7 9 12 13 13 13 14 14 14 14 16 26 44 47 49 95 96 73 26 16 10 23 43 24 8 6 12 34 38 57
70 71 69 64 62 50 26 8 7 7 8 8 11 13 14 17 21 28 44 75 100 100 68 31 24 33 55 76 100 100 100 79 35 18 20 26 27 35 17 11 13 35 39
70 70 67 52 25 12 10 10 11 12 20 33 44 57 64 62 60 81 88 100 100 100 99 100 100 79 68 65 99 78 100 84 80 62 36 41 33 29 26 19 16 20 36
70 60 36 19 13 11 12 14 19 39 54 62 67 71 77 84 88 96 100 100 100 94 87 95 99 100 100 96 97 99 97 96 85 53 59 52 46 37 35 32 27 27 40
55 28 21 18 18 17 17 28 48 50 58 53 42 33 31 48 71 82 93 100 100 100 96 91 75 84 99 100 100 100 100 100 98 88 78 58 39 57 74 49 35 54 51
28 26 24 26 22 24 44 69 70 68 50 35 28 24 22 21 21 34 81 98 98 98 98 92 91 97 82 90 100 97 99 100 100 99 92 93 58 68 59 59 58 87 68
26 27 32 25 26 50 81 78 68 53 42 32 25 22 21 20 20 20 22 48 86 96 95 98 83 82 85 80 75 81 88 84 80 78 81 79 84 77 72 85 95 92 83
25 30 25 26 49 87 79 69 51 41 33 26 25 23 20 19 18 18 19 20 26 66 91 90 98 93 92 93 87 76 64 62 62 63 56 54 53 66 68 84 64 66 80
27 25 30 46 91 85 69 49 42 33 29 24 19 17 18 18 17 16 16 16 18 20 43 79 89 96 100 100 100 97 91 84 68 68 64 64 70 53 44 42 47 51 43
27 32 39 90 90 70 50 41 33 28 21 21 23 23 22 26 26 20 16 14 15 16 19 31 64 72 77 77 71 63 59 56 51 48 49 54 59 60 62 58 50 40 34
36 37 90 89 74 52 43 34 26 23 37 51 65 68 66 64 42 26 21 17 13 14 14 19 32 53 56 52 47 37 26 18 15 14 14 14 14 18 24 36 44 47 47
40 67 86 81 56 50 39 28 30 49 50 58 69 84 86 75 43 25 23 18 14 13 13 16 19 23 23 19 16 18 44 35 39 32 25 18 17 14 13 12 12 11 12
66 88 84 65 54 42 35 26 50 43 54 83 95 87 77 48 30 28 25 18 15 12 13 17 18 18 30 78 73 59 60 63 64 67 70 76 70 58 48 46 41 34 28

GFSMA_500_rhum_036.txt.gz
RH
37 36 35 33 32 38 37 37 34 28 28 28 28 22 20 19 18 18 18 18 17 17 16 17 22 29 34 36 41 40 35 36 39 45 35 38 54 36 27 29 27 76 93
42 40 38 37 40 41 36 30 23 21 21 22 21 19 20 21 23 23 24 24 23 23 20 17 17 17 18 18 21 31 40 38 36 40 45 49 46 44 46 38 35 48 70
46 48 48 46 43 38 31 28 26 25 24 24 25 26 25 26 27 27 27 26 27 25 22 22 22 21 18 19 19 18 19 28 40 41 41 43 50 51 48 51 44 47 42
52 53 48 41 37 36 36 34 31 30 29 26 25 25 24 23 22 22 21 21 20 19 21 21 21 20 21 21 21 21 20 19 22 28 36 42 45 51 53 48 49 43 57
49 48 46 45 42 38 35 32 31 29 28 28 27 27 26 26 27 27 26 26 26 24 22 20 18 18 17 17 19 22 24 23 21 20 22 30 39 45 59 73 60 72 66
45 44 43 42 43 44 43 42 41 39 38 36 34 33 32 31 30 29 28 28 27 27 27 25 23 22 21 20 17 16 19 23 26 26 23 22 28 36 40 46 54 49 57
49 54 59 55 50 44 41 39 36 32 27 22 16 15 18 23 25 24 27 26 24 22 21 20 23 25 24 23 22 19 16 16 21 27 30 28 24 27 32 37 44 46 41
70 64 49 42 36 28 20 15 13 17 20 20 19 15 10 18 25 29 33 35 31 31 30 28 25 26 27 27 26 26 22 18 18 23 30 34 32 27 26 30 39 43 44
55 46 33 23 20 17 16 17 22 25 26 26 28 29 25 23 18 26 42 45 48 46 45 45 44 39 38 37 35 31 30 28 28 28 36 46 44 39 33 29 32 42 46
32 29 30 28 22 23 29 29 27 25 27 31 39 38 48 50 42 25 34 39 44 47 51 54 52 49 48 48 49 46 43 51 53 53 47 67 66 61 46 37 34 35 47
36 38 35 37 42 45 40 36 37 40 48 59 64 52 61 60 59 54 43 37 33 34 37 40 44 49 48 47 45 45 47 56 100 100 94 92 81 78 68 55 40 36 37
40 37 37 41 43 47 47 55 58 66 68 74 83 76 61 51 39 30 20 13 9 6 5 5 5 6 10 16 25 36 43 56 98 100 99 100 95 86 72 59 53 44 38
29 32 36 38 44 43 43 51 74 98 100 100 82 38 23 17 10 7 6 5 5 5 5 5 5 5 5 4 6 11 20 35 44 99 100 100 100 100 100 84 62 48 39
29 34 32 30 31 36 44 42 41 40 34 26 16 15 13 13 14 14 14 14 11 10 14 13 13 12 12 9 7 8 11 20 30 44 100 100 100 100 100 100 83 50 33
33 29 28 22 15 12 11 13 17 17 16 18 19 20 24 26 23 22 22 36 45 30 27 41 55 53 45 34 23 13 10 14 16 44 40 99 100 100 100 100 100 81 45
32 23 12 9 9 10 12 14 16 19 23 26 29 32 29 27 32 56 74 74 70 62 47 42 41 56 76 68 57 49 21 15 17 24 39 96 94 100 100 100 100 100 100
12 9 9 8 9 13 18 19 22 25 27 28 30 31 33 65 81 79 74 67 57 52 48 40 32 26 36 80 76 73 100 73 39 23 39 54 99 100 94 100 100 100 100
9 8 7 8 22 39 28 23 29 32 34 37 40 65 92 87 78 65 56 48 44 42 38 34 31 26 22 35 84 82 84 100 100 65 72 52 52 72 93 100 100 100 100
9 7 11 33 45 90 72 33 37 47 48 51 93 95 86 70 54 46 39 32 30 29 28 25 23 22 21 22 51 86 83 82 99 100 100 43 83 75 100 97 94 100 100
8 19 49 52 83 100 51 34 53 57 84 87 90 78 59 48 40 34 27 23 22 22 21 19 18 20 20 21 22 80 92 80 77 94 97 100 100 100 100 100 100 100 100
15 93 96 98 100 59 35 52 72 88 90 84 63 50 43 37 28 27 28 31 41 40 33 36 21 17 17 20 21 40 90 96 82 75 70 86 95 88 100 100 100 100 99
52 100 100 100 93 46 52 83 88 86 71 56 48 38 34 26 30 49 42 47 62 71 48 50 43 19 17 17 19 21 70 92 100 96 94 97 79 96 78 89 78 98 100
97 100 97 95 86 60 93 83 77 68 52 42 36 30 25 37 48 54 66 79 97 98 55 60 55 34 19 17 17 20 40 89 94 100 98 94 92 60 66 68 75 82 71
100 100 100 96 77 92 83 72 68 48 41 38 31 33 57 70 82 85 89 97 100 100 68 65 53 40 21 17 16 18 22 73 87 100 98 88 91 79 78 59 51 51 58
100 100 97 73 90 78 76 68 45 40 41 34 47 81 80 77 90 100 96 87 84 74 41 38 34 26 20 15 15 17 18 55 80 94 98 79 96 79 72 67 63 58 56
67 74 64 91 70 78 63 42 39 36 33 38 84 91 78 91 100 100 100 100 63 44 36 28 24 22 17 14 15 16 17 38 63 67 66 66 68 70 71 76 79 81 80

GFSMA_500_rhum_039.txt.gz
RH
49 38 38 38 39 41 41 40 40 36 31 27 27 26 27 28 26 24 22 22 23 24 24 23 22 20 17 15 16 22 29 32 36 35 32 36 45 41 44 35 40 40 31
31 37 45 44 42 39 38 37 35 33 31 28 29 30 32 33 32 31 30 28 26 26 24 24 24 24 23 21 17 16 14 16 23 32 35 33 35 45 44 38 37 34 52
51 51 48 45 42 39 38 37 35 33 33 32 31 30 30 29 28 27 26 24 24 24 24 23 22 22 22 22 22 20 17 16 14 16 24 32 34 34 43 56 50 42 37
55 55 52 49 47 45 44 46 46 47 45 42 42 40 39 37 36 36 35 34 32 29 28 28 28 27 26 23 20 20 21 21 18 16 16 18 27 34 35 40 48 52 46
51 54 55 54 56 63 61 54 43 29 20 16 13 11 12 12 11 10 11 12 16 19 23 26 28 28 29 29 27 24 20 19 20 20 18 17 17 19 25 37 46 51 57
58 59 60 63 57 41 29 19 14 15 14 12 11 11 12 13 12 12 12 12 14 14 13 12 14 18 21 23 26 28 26 24 21 19 19 19 18 19 20 20 30 47 55
66 66 64 38 27 21 19 17 18 18 18 16 13 12 12 12 12 13 13 12 12 13 13 13 16 16 17 19 23 26 28 25 25 24 22 20 20 20 20 19 19 24 41
76 72 46 35 26 24 20 18 16 15 14 13 13 13 12 14 18 20 20 19 17 22 20 17 17 19 21 25 29 29 30 33 28 26 26 24 23 24 24 23 20 18 21
58 44 35 29 28 25 22 21 22 22 20 21 21 21 17 15 15 17 21 24 26 36 39 27 27 32 36 38 37 42 41 40 42 36 38 51 30 29 26 29 28 22 19
72 50 38 38 39 38 33 29 27 28 29 26 25 24 22 19 16 14 14 15 22 47 55 33 33 46 54 53 51 48 51 50 50 52 47 38 76 84 49 36 37 36 27
36 36 36 36 30 25 28 32 35 33 29 26 22 18 15 14 13 12 10 11 15 24 26 27 32 34 41 45 46 45 46 52 55 55 54 57 44 58 97 80 51 46 39
33 22 19 21 26 31 33 32 28 22 16 12 10 10 12 14 16 24 35 56 78 72 73 63 26 12 16 21 22 22 26 34 52 59 58 60 60 50 65 81 87 74 61
17 18 20 23 26 29 28 23 15 11 9 9 9 10 11 16 24 32 34 29 24 19 15 13 12 11 9 7 6 6 6 7 11 28 52 57 59 77 91 98 64 87 94
17 17 20 27 30 26 17 13 10 9 8 8 11 14 15 18 20 21 24 22 18 21 20 19 17 16 12 11 10 8 6 6 6 6 10 34 56 72 100 100 99 99 96
24 27 34 32 24 17 12 11 8 8 10 18 27 30 22 27 32 31 34 34 30 25 23 27 36 45 48 43 43 33 22 12 8 7 7 8 23 75 100 100 100 100 100
31 41 34 25 18 13 10 8 8 12 45 43 37 29 31 30 34 36 38 42 53 67 48 66 70 70 64 58 52 50 50 45 33 18 10 8 8 28 96 100 100 100 100
43 38 30 20 13 10 8 10 20 45 52 57 20 22 35 39 43 44 56 89 89 88 74 63 64 61 56 52 49 39 32 39 52 46 27 14 10 10 31 67 100 100 100
40 36 24 12 9 13 21 43 81 96 99 54 35 51 59 67 77 84 90 89 84 71 58 48 42 39 38 41 41 40 35 27 35 58 58 42 16 16 17 39 66 94 100
33 20 12 9 14 24 44 100 100 100 98 41 69 86 82 83 88 85 70 56 46 40 36 32 28 26 25 26 26 27 29 28 24 50 69 100 95 45 27 32 45 68 100
20 11 9 10 17 41 100 100 100 88 45 84 89 84 73 61 50 44 39 34 30 27 25 25 24 22 21 20 19 22 23 25 23 25 71 94 100 100 78 44 44 53 100
11 9 12 15 54 100 100 87 79 63 81 82 71 62 51 42 36 32 29 27 28 30 36 41 36 49 50 43 24 19 18 22 22 22 59 80 91 100 100 97 62 48 80
9 9 18 39 89 100 87 99 72 81 78 71 53 41 38 32 30 37 60 68 72 72 70 62 55 52 67 71 38 28 18 18 21 21 34 74 72 91 100 98 77 51 43
10 16 18 55 56 77 93 87 77 74 54 40 38 34 30 29 56 66 72 76 83 85 79 80 85 93 92 69 44 43 22 16 20 22 23 74 82 73 76 96 96 97 100
19 19 24 30 49 77 78 71 71 47 39 37 37 33 29 61 66 70 98 100 99 96 84 63 74 93 79 64 64 44 21 16 18 21 24 67 89 89 83 74 73 76 86
30 34 38 44 58 68 71 64 50 39 37 40 38 33 63 69 76 96 95 100 100 100 99 66 54 50 50 64 56 33 19 16 17 20 21 67 99 87 82 74 73 80 69
43 44 46 54 63 73 64 53 43 35 38 36 34 49 85 75 100 100 100 100 100 100 100 83 42 36 32 31 27 21 16 16 17 19 23 77 90 92 100 91 77 73 73

GFSMA_500_rhum_042.txt.gz
RH
51 46 37 40 36 36 36 38 40 39 38 38 38 37 36 35 34 33 33 31 30 28 25 22 20 20 21 21 21 19 16 15 15 20 25 27 30 28 32 37 42 43 47
52 48 44 38 34 34 40 41 41 40 39 40 43 45 45 42 40 36 33 31 30 29 28 27 26 26 25 24 23 22 21 20 17 15 14 16 20 28 32 37 45 44 42
38 41 43 34 37 43 46 47 46 47 47 48 48 43 38 36 37 37 37 38 37 37 36 35 32 29 26 22 21 21 20 19 19 20 17 15 14 14 23 36 37 46 47
44 44 37 41 49 53 54 55 59 55 44 28 17 16 16 17 15 15 13 12 12 11 12 13 17 24 29 31 29 26 24 23 20 19 19 19 17 15 14 21 33 34 50
38 34 42 54 58 60 62 51 30 20 18 17 15 14 15 15 13 13 12 11 10 10 12 12 11 11 10 12 17 23 26 26 27 26 23 20 20 20 17 16 18 30 43
41 49 56 62 64 58 36 25 23 21 16 13 12 11 11 11 11 11 11 11 12 11 11 11 11 11 11 12 12 13 15 15 15 21 25 26 24 20 20 19 16 16 22
58 56 63 66 50 34 29 26 25 21 16 13 12 12 13 14 15 17 15 14 14 13 13 12 11 11 12 13 12 12 13 14 17 11 16 21 25 26 22 20 19 17 16
66 70 68 50 39 34 31 29 21 16 15 16 15 13 12 14 14 19 19 18 20 21 18 17 16 15 14 14 14 13 13 16 15 23 19 19 22 24 27 24 20 19 18
78 63 64 63 51 42 41 37 28 21 19 18 18 18 16 15 15 18 20 20 19 18 18 18 18 18 17 16 16 16 17 25 24 24 33 26 26 27 27 29 26 22 20
78 73 60 49 45 37 25 19 17 16 16 17 19 20 22 20 19 17 20 23 22 21 20 19 18 16 16 16 18 24 26 45 54 36 31 49 42 36 37 50 37 28 24
48 42 35 24 17 15 14 14 16 18 21 25 27 30 31 30 26 26 28 26 25 22 17 15 13 13 13 16 21 28 45 59 66 56 32 45 53 52 46 56 71 62 33
26 19 17 16 16 17 18 19 22 26 30 34 37 33 26 19 13 10 10 8 8 9 9 13 16 20 24 29 38 50 71 89 93 88 66 47 58 55 51 54 66 75 79
18 17 17 18 19 20 22 27 32 37 38 35 25 16 11 9 9 10 10 10 12 12 14 14 16 21 18 16 16 17 23 34 51 64 56 41 48 54 56 52 58 83 79
21 20 21 22 25 30 38 41 40 36 27 16 10 10 12 19 35 59 44 28 22 32 24 19 22 24 25 26 23 20 18 14 12 13 14 14 21 33 47 56 63 74 68
26 27 29 35 41 43 43 39 31 22 13 9 12 20 36 64 60 39 17 21 38 37 30 29 30 34 34 34 38 32 29 26 20 15 12 10 9 10 16 34 66 78 96
33 35 41 42 45 44 36 25 15 9 10 14 45 75 81 73 60 36 46 55 60 62 35 47 53 67 75 75 78 76 72 66 61 53 36 19 12 9 8 13 34 72 85
38 42 42 44 45 35 21 10 8 10 21 64 100 99 96 60 58 65 75 79 78 78 72 63 70 81 84 84 79 75 74 71 64 58 52 48 35 18 9 8 13 48 76
38 43 48 45 31 17 8 8 13 26 96 100 100 74 59 88 84 82 79 74 67 61 58 54 58 61 62 60 57 54 51 53 54 50 50 39 42 43 21 11 10 16 63
47 51 43 26 12 8 8 16 30 100 100 93 87 78 84 74 63 52 43 39 37 35 33 29 28 29 30 30 29 29 30 30 34 40 42 42 31 44 44 23 14 15 19
52 42 23 10 8 12 15 20 45 95 78 92 80 73 65 45 38 35 33 32 30 30 37 39 36 29 25 25 23 24 23 23 23 24 27 36 35 29 53 44 27 16 18
37 19 9 9 16 17 19 29 49 65 82 71 71 53 41 37 34 33 28 33 59 60 57 54 55 56 57 53 40 32 28 30 24 20 21 23 29 27 48 63 44 27 20
16 9 10 21 24 24 29 37 49 63 71 62 48 41 35 35 33 29 49 62 60 82 79 76 70 78 73 73 77 42 42 44 45 37 20 21 22 24 34 80 86 66 84
10 11 25 32 33 34 38 54 65 66 51 49 39 33 34 33 27 42 52 72 97 100 100 93 90 99 83 83 94 98 65 48 51 49 24 19 21 22 25 66 81 84 100
12 15 43 42 44 41 51 62 64 58 50 43 34 35 36 28 35 54 63 94 100 100 100 99 98 100 88 78 97 97 94 81 62 38 24 19 19 21 21 59 74 84 96
14 40 51 53 52 53 58 63 63 56 46 39 34 39 33 30 63 63 88 94 100 100 100 100 100 100 76 58 80 74 57 41 47 44 22 18 19 20 20 50 84 83 91
19 60 58 62 62 59 66 70 64 52 43 35 36 41 31 43 69 78 91 100 100 100 100 100 100 87 51 42 42 50 61 60 44 26 17 18 19 20 22 73 85 79 86

GFSMA_500_rhum_045.txt.gz
RH
80 69 50 42 38 36 40 33 27 31 40 45 44 42 43 44 41 39 39 36 33 30 29 29 28 25 23 21 19 18 18 18 19 18 17 15 19 26 25 27 36 35 33
82 61 45 58 42 40 37 36 36 43 48 49 48 50 51 51 45 38 36 37 40 42 41 38 34 30 27 26 26 25 22 20 20 20 19 19 18 15 19 24 29 26 34
97 79 38 36 36 35 38 43 49 54 55 56 54 46 29 23 20 16 15 15 15 14 13 13 16 24 33 33 29 28 28 24 22 20 18 18 19 20 17 15 20 28 31
53 42 45 46 47 47 48 52 62 66 64 47 30 24 21 19 16 15 14 14 13 12 12 12 11 10 11 12 14 24 28 31 32 28 22 20 18 18 19 18 15 15 24
48 54 52 53 56 59 63 67 67 56 35 29 27 24 20 16 14 13 13 13 13 12 12 10 9 9 9 9 9 10 10 12 18 27 31 29 24 21 19 18 19 18 16
60 62 66 69 69 68 66 57 46 37 30 24 20 17 16 15 16 15 14 13 13 13 12 13 13 12 10 9 8 8 8 8 9 10 12 22 29 29 27 23 20 19 19
72 75 74 60 46 39 32 25 23 20 18 17 16 15 14 14 13 12 11 11 11 10 10 9 9 10 10 11 11 11 9 8 8 9 10 9 11 19 26 28 27 24 19
67 62 49 42 40 37 34 34 37 36 28 19 16 15 15 15 15 16 17 16 16 16 14 13 12 11 11 12 12 12 11 11 11 9 8 10 10 10 11 20 26 26 26
81 60 56 56 55 53 47 37 25 20 18 19 20 20 19 18 18 19 20 20 20 21 21 20 17 15 14 13 13 15 16 15 13 14 12 10 10 10 10 11 16 24 27
71 61 58 49 36 25 22 22 21 21 21 20 21 23 26 26 25 21 23 25 26 27 28 29 29 29 27 25 24 21 20 20 19 17 16 15 13 12 11 14 15 16 21
59 49 34 26 28 30 27 24 24 23 22 21 23 26 30 31 31 28 26 24 21 20 19 19 20 21 22 24 24 22 22 24 24 23 21 18 16 16 14 12 19 23 29
40 28 28 32 36 35 32 32 29 26 26 29 32 35 33 28 19 13 10 9 9 9 10 10 10 10 10 10 12 13 13 13 14 18 22 23 19 16 16 20 23 33 37
31 30 37 42 42 42 38 34 33 33 39 41 36 29 17 7 7 8 10 12 20 29 17 16 16 18 24 20 18 15 12 11 10 10 12 20 30 34 30 23 26 43 43
34 43 50 51 49 44 42 41 40 42 40 34 21 7 7 8 11 30 32 56 52 47 26 18 16 17 16 29 33 31 26 20 16 14 12 10 10 15 34 58 50 54 60
52 60 60 56 51 49 43 38 39 38 27 11 6 8 11 17 50 79 64 64 41 36 30 52 51 54 46 37 36 35 29 27 25 22 19 17 14 11 10 13 45 72 83
60 57 56 50 49 44 38 41 34 14 7 7 10 14 28 72 90 63 51 72 75 71 39 65 66 64 64 64 60 61 61 59 53 50 43 30 22 19 15 12 12 24 70
51 51 50 48 45 42 43 29 10 7 8 13 14 26 71 75 59 64 72 66 57 49 33 34 37 39 48 62 66 70 76 81 83 78 73 70 63 43 23 18 13 14 21
58 55 49 47 45 42 16 6 8 14 16 17 21 45 57 58 63 64 48 40 39 36 31 26 27 27 26 28 31 40 55 70 78 80 76 71 72 68 56 31 18 13 12
56 50 50 50 32 9 8 11 19 22 23 31 40 52 56 54 45 43 38 34 34 34 31 26 23 26 26 30 25 22 26 32 41 54 60 59 59 66 61 53 36 19 14
50 49 50 24 8 8 12 26 27 28 32 41 52 51 43 42 40 34 34 35 33 29 40 51 49 49 50 51 48 37 34 27 25 26 30 36 43 50 53 51 45 40 23
48 49 21 8 8 11 25 37 35 34 40 46 53 51 44 40 35 33 35 32 30 50 51 71 82 82 84 83 76 78 49 46 43 25 23 24 25 29 41 46 42 40 45
47 19 8 8 11 16 45 47 45 44 49 55 57 48 40 36 32 37 34 31 51 55 74 83 90 95 100 100 100 96 79 50 65 54 32 25 22 22 25 38 42 34 42
18 8 9 11 15 44 55 56 57 58 65 57 54 41 36 31 34 36 27 49 60 79 88 90 90 100 100 100 100 100 77 56 72 89 47 47 40 26 20 24 36 35 29
9 10 12 17 33 64 62 68 70 70 68 65 49 38 33 32 38 29 43 60 87 91 93 99 99 100 100 100 100 96 70 72 89 100 66 50 42 43 20 20 26 32 26
11 12 17 23 67 68 70 76 70 73 74 61 46 35 30 36 37 28 52 71 83 92 100 100 100 100 100 97 72 58 74 93 100 100 92 68 59 43 24 19 24 27 25
12 15 22 52 77 68 73 66 61 69 70 53 39 33 31 39 29 38 59 74 84 99 100 100 100 100 88 50 44 47 58 82 79 76 60 47 40 29 20 18 23 24 24